Airfield :
LOGIN :

Register | Disclaimer

   EN    FR    IT 

 










Legend :    VFR   Marginal VFR   IFR   Intensive IFR   Very Intensive IFR
Visi :
Ceiling :
>= 8 km
>= 3000ft
5 to 8 km
1000 to 3000 ft
1500m to 5 km
500 to 1000 ft
800 to 1500m
200 to 500 ft
< 800m
< 200 ft
Symbols :   Thunderstorms  Fog  Heavy snow  Heavy precipitations  Wind > 20 kt
SIGMETs :     Misc.  Thunderstorms  Icing  Turbulence  Mountain Waves  Volcanic Ashes







- Airport Elevation : 158 ft
- IATA code : QAR


EHDL - Deelen Airbase

CURRENT METAR :
  • 181555Z AUTO 20006KT 150V230 9999 OVC260 14/04 Q1014 BLU

EXPIRED METARs :
  • 181525Z AUTO 21005KT 080V240 9999 OVC290 14/04 Q1014 BLU
  • 181455Z AUTO 20006KT 140V220 9999 OVC300 14/04 Q1015 BLU
  • 181425Z AUTO 19005KT 140V250 9999 OVC300 14/04 Q1015 BLU
  • 181355Z AUTO 19007KT 120V250 9999 OVC300 15/05 Q1015 BLU
  • 181325Z AUTO 18007KT 130V250 9999 OVC290 14/05 Q1015 BLU

Expired Forecast.
No reported NOTAMs for that airfield.



MET'MAP, your aeronautical weather chart ! - Copyright ORBIFLY December 2007 - Disclaimer

ORBIFLY MET'MAP TEAM :

Programming & Development : Alexandra Zaïnal
Concept & Development : Baudouin d'Aumeries
Co-Development & Prog : Marc-Olivier Méhu
Technical & hardware support : Manuel Goepfert

Contact : metmap@orbifly.com




SOURCES & CREDITS :

   NOAA